ニート彗星

272P/NEAT (2022)

English version
Home page
Updated on June 13, 2021

---------------------------------------------------------------------

・ プロフィール

・ 軌道要素

Epoch 2022 June 30.0 TT = JDT 2459760.5
T 2022 July 17.05070 TT                                 MPC
q   2.4322058            (2000.0)            P               Q
n   0.10463265     Peri.   27.89716     -0.71394106     -0.63618229
a   4.4602367      Node   109.46995     +0.57072796     -0.77073091
e   0.4546913      Incl.   18.07417     +0.40565720     -0.03529822
P   9.42
From 70 observations 2003 Dec. 1-2012 Dec. 20, mean residual 0".5.

・ 光度変化

        m1 = 14.0 + 5 logΔ + 10.0 log r

---------------------------------------------------------------------

軌道要素はM.P.E.C. 2012-Y30に掲載されたものです。
光度グラフはComet for Windowsで作成したものです。

---------------------------------------------------------------------

Copyright(C) Seiichi Yoshida (comet@aerith.net). All rights reserved.